This is the latest recevied weather packets stored in our database for station/object IZ8QAD-4. If no packets are shown the sender has not sent any weather packets the latest 10 day(s).
| Time | Temp. | Humidity | Pressure | Rain* | Wind** | Luminosity | Snow |
|---|---|---|---|---|---|---|---|
| 1777986997 | 23.33° C | 32% | 969 hPa | - | - | - | - |
| 1777985196 | 23.33° C | 33% | 969.3 hPa | - | - | - | - |
| 1777983396 | 23.33° C | 33% | 969.5 hPa | - | - | - | - |
| 1777981596 | 23.33° C | 34% | 969.6 hPa | - | - | - | - |
| 1777979795 | 23.33° C | 35% | 969.8 hPa | - | - | - | - |
| 1777977995 | 23.33° C | 37% | 969.8 hPa | - | - | - | - |
| 1777976195 | 22.78° C | 32% | 969.8 hPa | - | - | - | - |
| 1777974394 | 22.22° C | 32% | 969.7 hPa | - | - | - | - |
| 1777972594 | 22.22° C | 31% | 969.7 hPa | - | - | - | - |
| 1777970794 | 22.22° C | 33% | 969.6 hPa | - | - | - | - |
| 1777968994 | 21.67° C | 33% | 969.9 hPa | - | - | - | - |
| 1777967196 | 21.67° C | 33% | 969.8 hPa | - | - | - | - |
| 1777965396 | 21.67° C | 33% | 969.7 hPa | - | - | - | - |
| 1777963596 | 21.67° C | 34% | 969.5 hPa | - | - | - | - |
| 1777961796 | 22.22° C | 33% | 969.4 hPa | - | - | - | - |
| 1777959996 | 22.78° C | 31% | 969 hPa | - | - | - | - |
| 1777958195 | 22.78° C | 34% | 969.1 hPa | - | - | - | - |
| 1777956395 | 22.78° C | 36% | 969.1 hPa | - | - | - | - |
| 1777954594 | 22.78° C | 37% | 968.9 hPa | - | - | - | - |
| 1777952794 | 22.78° C | 37% | 969.1 hPa | - | - | - | - |
| 1777950993 | 22.78° C | 37% | 969.1 hPa | - | - | - | - |
| 1777949193 | 23.33° C | 37% | 969.2 hPa | - | - | - | - |
| 1777947393 | 23.33° C | 36% | 969.4 hPa | - | - | - | - |
| 1777945593 | 23.33° C | 36% | 969.5 hPa | - | - | - | - |
| 1777943793 | 23.89° C | 36% | 969.9 hPa | - | - | - | - |
* Rain since midnight (hover to see other rain measurements)
** Current wind speed in m/s (hover to see current wind gust speed)